Dewpoint
12 13 14 14 12 11 17 13 12 17 24 20 29 35 32 31 25 22 38 31 32 39 33 40 46 47 46 46 46 45 47 47 48 49 50 52 55 57 58 58 58 59 62 64 64 66 68 69 70 70 70 69 68 66 65 65 65 66 66 66 66 66 66
13 13 13 13 11 23 18 11 13 22 26 29 26 19 30 26 21 26 29 25 24 27 28 41 45 46 47 46 45 45 45 47 47 49 50 52 55 57 58 58 58 59 62 64 64 66 68 69 70 70 69 68 67 66 65 65 66 66 66 65 66 67 67
13 14 13 12 14 16 11 10 19 10 19 17 27 26 16 21 22 22 26 29 29 31 34 40 44 45 46 46 46 45 45 46 47 48 49 51 54 56 57 57 58 59 63 64 64 66 67 68 70 69 69 68 67 66 66 65 66 66 66 66 66 68 67
12 13 11 11 10 14 20 17 14 22 17 23 23 19 24 21 24 24 21 27 23 38 35 40 43 44 46 46 46 45 45 46 47 48 49 51 53 56 56 56 58 59 62 64 64 66 67 68 69 69 68 67 66 66 66 65 66 66 67 67 67 67 68
16 12 12 11 11 11 15 16 17 17 29 24 20 32 26 18 25 21 23 18 31 37 45 40 42 42 44 45 45 45 45 46 47 48 49 51 53 55 56 56 58 60 62 64 65 66 67 68 69 68 67 66 65 65 66 66 66 66 67 67 67 67 68
14 14 13 11 11 11 11 12 13 13 18 21 16 17 26 29 21 22 19 18 35 38 48 44 39 39 43 45 45 45 45 47 49 49 49 51 53 55 56 56 58 60 62 64 65 66 67 68 68 67 66 66 65 65 65 66 66 66 66 67 67 67 68
12 13 14 13 11 12 14 11 13 13 18 24 18 16 23 29 26 32 27 27 31 38 46 41 39 41 42 44 45 46 48 50 51 50 50 51 53 55 56 57 59 61 62 64 65 67 67 68 68 67 66 65 65 66 65 66 66 66 66 67 68 67 67
26 18 14 13 14 12 15 14 14 13 15 18 20 25 31 20 30 25 29 33 29 42 50 42 42 44 42 44 45 46 49 51 52 52 52 56 57 57 57 58 60 61 63 64 65 67 68 68 68 66 66 65 66 66 65 66 66 66 66 67 68 67 67
17 17 20 12 14 15 15 17 15 13 14 15 27 37 36 23 28 25 27 25 27 40 50 43 40 39 39 41 42 45 47 50 50 53 55 57 58 59 58 59 61 62 63 65 66 67 68 68 68 67 66 66 66 66 66 66 66 66 66 67 67 67 66
16 17 16 16 15 17 16 23 14 13 11 14 23 18 26 18 34 35 29 30 34 41 42 41 35 35 38 41 42 44 47 48 49 53 56 58 58 59 59 60 61 62 63 66 67 67 68 68 68 67 66 66 66 67 66 66 67 67 67 67 67 67 66
21 22 27 26 29 20 13 12 12 13 12 12 22 32 26 20 32 30 32 32 35 37 38 38 35 34 36 41 42 44 45 47 50 54 57 58 58 58 58 59 61 62 63 65 67 67 68 68 68 67 66 66 66 67 67 66 66 67 67 67 67 66 66
21 24 37 39 25 13 12 12 11 12 13 17 19 21 24 34 30 24 34 39 34 35 35 36 35 34 38 41 41 42 44 46 49 54 57 62 58 58 58 58 59 62 62 64 66 67 68 68 68 67 66 66 66 66 66 66 66 67 67 67 66 66 66
18 15 21 25 20 14 13 12 11 11 13 18 19 29 26 35 25 23 34 39 34 34 34 34 33 35 38 38 40 41 43 45 49 56 58 58 57 58 58 58 58 61 62 63 64 66 67 68 67 66 65 65 66 66 66 66 65 66 66 66 66 65 65
21 21 21 22 17 16 12 12 17 17 14 15 17 25 33 30 33 32 35 39 34 33 33 33 34 37 38 40 42 42 43 44 49 58 59 58 57 58 58 58 58 59 61 63 63 65 66 67 66 65 65 65 65 65 65 64 64 65 65 66 66 65 65
22 20 23 20 15 15 14 16 16 17 17 18 18 19 33 35 34 39 36 40 37 39 36 35 40 43 44 44 42 42 43 45 51 55 59 59 59 60 59 59 59 59 60 62 64 64 65 65 65 65 65 65 64 63 64 63 63 64 64 65 65 65 65
22 22 20 18 17 14 13 22 25 23 19 27 31 31 31 35 37 44 39 38 37 38 43 45 45 45 43 42 42 43 47 46 51 53 57 61 62 63 62 60 60 60 60 61 63 64 64 64 65 65 64 64 64 62 62 61 61 63 64 64 65 65 65
25 23 20 18 17 18 23 31 22 29 30 29 31 35 40 39 36 42 39 37 38 40 45 43 46 42 40 40 43 46 48 49 49 52 56 59 62 64 65 64 62 62 62 62 63 64 64 64 64 64 64 63 63 62 60 60 61 63 63 64 64 65 65
28 25 22 31 24 23 22 36 34 34 28 30 31 37 41 43 47 43 40 42 46 45 44 43 44 42 42 45 51 51 50 51 52 52 52 53 56 59 62 64 65 64 63 63 63 64 64 63 63 64 64 63 63 62 60 61 61 62 63 64 64 64 64
27 32 25 20 16 26 39 46 39 30 32 34 36 39 40 39 42 41 42 43 44 44 45 46 46 47 49 50 49 50 51 50 50 52 55 56 57 59 60 63 65 66 65 65 64 64 64 64 63 64 64 63 61 59 61 61 61 62 63 63 63 63 62
33 32 31 14 26 38 42 43 37 41 38 39 36 36 37 42 40 42 41 44 43 42 40 41 42 44 50 52 52 50 50 47 46 50 52 56 58 61 63 64 65 66 66 66 65 65 65 64 64 64 63 60 59 59 61 60 61 61 62 62 61 61 61
28 32 33 29 40 35 35 38 35 32 33 37 33 32 37 45 46 42 39 40 42 42 40 42 46 47 44 44 44 47 52 53 52 50 49 50 52 54 61 65 66 67 67 66 66 66 65 65 64 63 61 59 58 59 59 60 60 61 61 62 63 63 62
36 29 28 30 29 26 33 40 41 39 36 35 39 37 36 42 41 47 43 41 42 44 44 44 44 44 41 42 44 47 49 52 54 53 53 51 52 53 54 60 64 66 67 66 67 67 66 65 64 62 59 58 57 57 57 59 60 60 58 60 64 63 62
37 35 28 26 27 31 40 41 39 39 39 32 37 37 35 40 42 47 45 41 41 41 40 42 42 39 38 40 43 45 49 50 49 49 50 52 53 53 57 61 63 65 66 66 67 67 66 64 63 61 59 57 56 56 57 58 59 59 57 58 61 62 63
41 37 31 29 33 37 43 43 40 37 39 39 34 27 34 43 45 47 47 43 43 46 46 43 39 37 36 38 40 41 45 50 49 48 58 63 65 66 68 69 69 68 68 68 67 66 65 64 63 60 58 57 57 57 57 59 60 58 57 58 59 61 63
40 39 33 33 37 47 46 42 42 42 41 41 34 29 38 45 48 47 47 46 46 46 45 43 41 45 44 44 46 47 51 55 59 60 62 63 65 67 69 70 71 70 69 68 67 66 65 64 62 62 62 62 60 61 61 58 58 58 58 58 60 62 64
40 40 37 34 39 44 44 45 45 45 36 34 35 41 48 50 49 50 48 47 48 47 46 46 46 47 49 51 51 54 57 60 62 63 64 64 66 68 70 70 70 69 68 67 65 64 64 64 64 63 63 62 59 61 62 61 59 57 58 59 61 63 64
45 44 40 34 30 42 46 47 47 50 42 41 43 46 52 50 49 49 50 50 51 50 50 51 51 51 51 50 51 55 59 62 62 63 63 64 65 67 68 68 68 67 66 65 65 65 65 65 65 64 62 62 61 62 61 59 58 58 59 62 63 64 65
41 42 36 35 41 46 47 48 43 48 53 51 57 49 47 51 50 48 49 51 53 51 49 49 50 50 51 53 54 55 58 60 60 60 63 66 66 65 65 65 65 64 64 64 65 65 65 65 65 64 62 62 62 61 60 60 61 63 63 63 64 65 65
46 43 45 49 51 49 47 48 48 48 50 50 50 50 49 49 49 52 50 51 53 52 53 54 54 53 54 57 60 61 61 60 62 64 65 65 64 64 64 64 65 64 64 64 64 64 64 65 65 64 63 62 63 62 62 65 66 66 65 64 64 64 65
46 47 49 51 51 49 47 47 47 47 47 48 50 50 51 52 52 51 51 54 56 55 55 55 57 58 59 62 63 62 63 63 63 63 63 62 63 63 63 63 64 64 64 64 63 63 64 65 66 66 66 65 64 64 65 64 64 64 64 65 65 66 66
39 39 46 51 51 51 49 48 48 49 49 49 49 48 49 49 50 53 54 54 57 60 60 58 59 60 62 63 63 63 62 63 62 62 62 62 62 62 62 63 64 63 63 63 63 63 64 65 65 65 65 64 63 63 63 61 61 62 61 63 65 66 66
40 43 51 55 52 52 53 50 49 50 50 49 50 51 53 54 51 48 50 56 58 59 59 61 60 61 62 61 62 62 62 62 62 61 61 61 61 62 62 62 63 63 63 63 63 63 63 63 64 64 63 63 62 63 63 62 59 63 65 65 65 65 66
52 54 57 56 50 47 50 52 55 54 52 51 50 49 48 49 47 45 45 46 53 59 61 60 59 59 61 62 62 61 61 61 61 61 61 61 61 61 61 61 62 62 63 63 62 62 61 62 63 63 64 64 64 64 62 62 65 64 65 66 65 66 66
46 47 50 51 43 44 49 51 53 55 56 54 53 52 51 53 53 53 52 48 45 47 55 61 59 59 59 61 61 61 61 61 61 60 60 60 61 61 61 61 62 62 62 61 61 61 60 60 61 62 61 60 60 60 60 61 62 63 64 65 64 65 65
45 50 51 55 48 48 50 52 54 54 54 50 44 44 46 48 50 46 46 45 43 43 45 54 61 60 60 60 61 61 61 61 61 61 61 61 61 61 62 62 61 61 60 60 59 58 57 58 58 58 57 57 58 61 62 62 62 62 62 61 60 60 60
44 48 52 52 49 46 49 52 53 50 51 45 43 44 46 49 48 47 48 47 44 44 44 45 49 61 60 61 61 60 60 60 61 61 60 60 62 62 62 61 61 60 60 59 57 57 56 57 58 58 58 59 58 60 62 63 62 62 61 60 58 58 58
37 42 43 46 45 44 47 46 45 46 52 47 45 44 44 45 47 52 47 42 43 41 42 43 42 52 61 61 61 60 60 61 62 62 62 61 61 61 61 61 60 60 60 59 58 58 58 58 59 59 57 59 58 61 63 62 62 60 60 60 58 58 59